International Virtual Aviation Organisation

Russian Federation and Kazakhstan MCD

 

Карточка аэропорта UHPP

Внимание!
Информация на этой странице в стадии наполнения.
Если вы не увидели какой-то информации, или заметили неточность - пожалуйста сообщите нам!
Спасибо!
Команда RU-STAFF
Название аэропортаЕлизово
Название аэропорта (англ.)Yelizovo
Превышение131 ft. (39.9 m.)
Координаты53°10.002', 158°27.24'
Высота перехода2400m
Эшелон переходаQFE>756:FL90;756>QFE>729:FL100;729>QFE:FL110
Коды ответчика6630-6657
Зона ОрВДПетропавловск-Камчатский РПИ (UHPP)
Данные METARUHPP 282000Z 17002MPS 3700 -SHSN BKN007 OVC020CB 00/00 Q1001 R16R/690245 NOSIG RMK MT OBSC QFE747/0997
Проноз погоды (TAF)UHPP 281938Z 2821/3003 14005G17MPS 5000 -SHSN BKN011 OVC020CB TEMPO 2821/2824 0700 +SHSN VV003 FM290000 26003G12MPS 9999 BKN025CB TEMPO 2900/2905 32007G18MPS 1000 SHSN BKN004 OVC020CB
NOTAMshow/hide NOTAM
AWOS   TABLE

Информация о ВПП

ВПП Длина ВПП (м.) Покрытие Курс ВПП Частота ILS
34R3400Бетон344110.3
16L3400Бетон164 
34L2500Бетон344 
16R2500Бетон164 

Диспетчерские позиции

Позывной Наименование органа УВД Частота
UHPP_TWRПетропавловск - Старт118.100
UHPP_R_APPПетропавловск - Круг119.400



Спутниковое изображение